| time (UTC) | temp C | wind direction | speed KPH | gust KPH | rain 1hr cm | rain 24hr cm | rain mn cm | humidity % | barometer mb |
| 20260504050528 | 15 | 203 | 6.4 | 19.3 | 0.00 | 0.00 | 0.00 | 36 | 997.9 |
| 20260504045527 | 15 | 182 | 6.4 | 16.1 | 0.00 | 0.00 | 0.00 | 36 | 998.1 |
| 20260504045030 | 15 | 170 | 8.0 | 16.1 | 0.00 | 0.00 | 0.00 | 36 | 998.2 |
| 20260504044545 | 15 | 191 | 4.8 | 16.1 | 0.00 | 0.00 | 0.00 | 37 | 998.3 |
| 20260504044027 | 15 | 146 | 8.0 | 19.3 | 0.00 | 0.00 | 0.00 | 37 | 998.3 |
| 20260504043527 | 15 | 178 | 9.7 | 19.3 | 0.00 | 0.00 | 0.00 | 36 | 998.4 |
| 20260504043055 | 15 | 202 | 6.4 | 19.3 | 0.00 | 0.00 | 0.00 | 36 | 998.5 |
| 20260504042528 | 15 | 153 | 6.4 | 17.7 | 0.00 | 0.00 | 0.00 | 37 | 998.7 |
| 20260504042032 | 15 | 240 | 4.8 | 17.7 | 0.00 | 0.00 | 0.00 | 36 | 998.7 |
| 20260504041544 | 15 | 215 | 8.0 | 17.7 | 0.00 | 0.00 | 0.00 | 36 | 998.9 |
| 20260504041025 | 15 | 214 | 6.4 | 17.7 | 0.00 | 0.00 | 0.00 | 36 | 999.0 |
| 20260504040525 | 15 | 210 | 4.8 | 16.1 | 0.00 | 0.00 | 0.00 | 36 | 999.1 |
| 20260504040047 | 15 | 195 | 6.4 | 16.1 | 0.00 | 0.00 | 0.00 | 36 | 999.2 |
| 20260504035528 | 15 | 214 | 6.4 | 16.1 | 0.00 | 0.00 | 0.00 | 36 | 999.3 |
| 20260504035032 | 15 | 215 | 8.0 | 16.1 | 0.00 | 0.00 | 0.00 | 35 | 999.5 |
| 20260504034549 | 15 | 210 | 6.4 | 14.5 | 0.00 | 0.00 | 0.00 | 35 | 999.5 |
| 20260504034027 | 16 | 159 | 8.0 | 14.5 | 0.00 | 0.00 | 0.00 | 35 | 999.8 |
| 20260504033530 | 16 | 209 | 4.8 | 14.5 | 0.00 | 0.00 | 0.00 | 35 | 999.8 |
| 20260504033042 | 16 | 167 | 8.0 | 14.5 | 0.00 | 0.00 | 0.00 | 34 | 1000.0 |
| 20260504032528 | 16 | 169 | 8.0 | 14.5 | 0.00 | 0.00 | 0.00 | 34 | 1000.1 |
| 20260504032028 | 16 | 179 | 8.0 | 14.5 | 0.00 | 0.00 | 0.00 | 34 | 1000.3 |
| 20260504031545 | 16 | 175 | 6.4 | 14.5 | 0.00 | 0.00 | 0.00 | 34 | 1000.3 |
| 20260504031027 | 16 | 198 | 6.4 | 14.5 | 0.00 | 0.00 | 0.00 | 33 | 1000.6 |
| 20260504030527 | 16 | 198 | 6.4 | 14.5 | 0.00 | 0.00 | 0.00 | 33 | 1000.7 |
| 20260504030048 | 16 | 193 | 6.4 | 14.5 | 0.00 | 0.00 | 0.00 | 33 | 1000.8 |
| 20260504025528 | 16 | 202 | 6.4 | 14.5 | 0.00 | 0.00 | 0.00 | 33 | 1001.0 |
| 20260504025028 | 16 | 155 | 4.8 | 11.3 | 0.00 | 0.00 | 0.00 | 33 | 1001.1 |
| 20260504024542 | 16 | 172 | 6.4 | 11.3 | 0.00 | 0.00 | 0.00 | 33 | 1001.2 |
| 20260504024024 | 16 | 219 | 6.4 | 11.3 | 0.00 | 0.00 | 0.00 | 33 | 1001.4 |
| 20260504023528 | 16 | 198 | 4.8 | 9.7 | 0.00 | 0.00 | 0.00 | 33 | 1001.5 |
| 20260504023041 | 16 | 199 | 4.8 | 9.7 | 0.00 | 0.00 | 0.00 | 32 | 1001.6 |
| 20260504022530 | 16 | 155 | 4.8 | 8.0 | 0.00 | 0.00 | 0.00 | 32 | 1001.6 |
| 20260504022028 | 16 | 205 | 3.2 | 6.4 | 0.00 | 0.00 | 0.00 | 32 | 1001.7 |
| 20260504021546 | 16 | 196 | 3.2 | 6.4 | 0.00 | 0.00 | 0.00 | 32 | 1001.7 |
| 20260504021027 | 16 | 198 | 3.2 | 6.4 | 0.00 | 0.00 | 0.00 | 31 | 1001.9 |
| 20260504020527 | 16 | 204 | 3.2 | 6.4 | 0.00 | 0.00 | 0.00 | 31 | 1001.9 |
| 20260504020059 | 16 | 191 | 3.2 | 6.4 | 0.00 | 0.00 | 0.00 | 31 | 1002.0 |
| 20260504015527 | 16 | 162 | 3.2 | 4.8 | 0.00 | 0.00 | 0.00 | 31 | 1002.2 |
| 20260504015028 | 16 | 182 | 3.2 | 6.4 | 0.00 | 0.00 | 0.00 | 30 | 1002.3 |
| 20260504014551 | 17 | 186 | 3.2 | 6.4 | 0.00 | 0.00 | 0.00 | 30 | 1002.3 |
| 20260504014027 | 17 | 195 | 1.6 | 3.2 | 0.00 | 0.00 | 0.00 | 29 | 1002.4 |
| 20260504013527 | 17 | 193 | 0.0 | 3.2 | 0.00 | 0.00 | 0.00 | 29 | 1002.5 |
| 20260504013047 | 17 | 250 | 1.6 | 3.2 | 0.00 | 0.00 | 0.00 | 29 | 1002.6 |
| 20260504012527 | 17 | 231 | 0.0 | 3.2 | 0.00 | 0.00 | 0.00 | 29 | 1002.8 |
| 20260504012028 | 17 | 220 | 0.0 | 4.8 | 0.00 | 0.00 | 0.00 | 29 | 1002.8 |
| 20260504011545 | 17 | 203 | 0.0 | 4.8 | 0.00 | 0.00 | 0.00 | 28 | 1002.9 |
| 20260504011026 | 17 | 213 | 0.0 | 4.8 | 0.00 | 0.00 | 0.00 | 28 | 1002.9 |
| 20260504010526 | 18 | 279 | 0.0 | 14.5 | 0.00 | 0.00 | 0.00 | 27 | 1003.0 |
| 20260504010041 | 18 | 266 | 4.8 | 14.5 | 0.00 | 0.00 | 0.00 | 27 | 1003.0 |
| 20260504005528 | 18 | 271 | 3.2 | 11.3 | 0.00 | 0.00 | 0.00 | 27 | 1003.2 |
| 20260504005028 | 18 | 268 | 1.6 | 6.4 | 0.00 | 0.00 | 0.00 | 27 | 1003.3 |
| 20260504004541 | 18 | 148 | 1.6 | 6.4 | 0.00 | 0.00 | 0.00 | 27 | 1003.2 |
| 20260504004027 | 18 | 278 | 1.6 | 8.0 | 0.00 | 0.00 | 0.00 | 27 | 1003.4 |
| 20260504003527 | 18 | 288 | 1.6 | 9.7 | 0.00 | 0.00 | 0.00 | 27 | 1003.4 |
| 20260504003047 | 18 | 287 | 3.2 | 9.7 | 0.00 | 0.00 | 0.00 | 27 | 1003.4 |
| 20260504002527 | 18 | 252 | 3.2 | 16.1 | 0.00 | 0.00 | 0.00 | 27 | 1003.6 |
| 20260504002027 | 18 | 232 | 4.8 | 16.1 | 0.00 | 0.00 | 0.00 | 26 | 1003.8 |
| 20260504001548 | 18 | 245 | 3.2 | 11.3 | 0.00 | 0.00 | 0.00 | 27 | 1003.8 |
| 20260504001030 | 18 | 252 | 4.8 | 12.9 | 0.00 | 0.00 | 0.00 | 26 | 1003.9 |
| 20260504000525 | 19 | 271 | 4.8 | 12.9 | 0.00 | 0.00 | 0.00 | 26 | 1003.9 |
| 20260504000049 | 19 | 233 | 4.8 | 11.3 | 0.00 | 0.00 | 0.00 | 26 | 1003.9 |
| 20260503235527 | 19 | 247 | 3.2 | 14.5 | 0.00 | 0.00 | 0.00 | 25 | 1004.0 |
| 20260503235025 | 19 | 279 | 6.4 | 14.5 | 0.00 | 0.00 | 0.00 | 25 | 1003.9 |
| 20260503234543 | 19 | 262 | 4.8 | 12.9 | 0.00 | 0.00 | 0.00 | 25 | 1003.8 |
| 20260503234027 | 20 | 27 | 3.2 | 14.5 | 0.00 | 0.00 | 0.00 | 25 | 1003.9 |
| 20260503233527 | 19 | 233 | 4.8 | 14.5 | 0.00 | 0.00 | 0.00 | 25 | 1004.0 |
| 20260503233040 | 19 | 293 | 6.4 | 16.1 | 0.00 | 0.00 | 0.00 | 25 | 1004.0 |
| 20260503232526 | 19 | 245 | 4.8 | 17.7 | 0.00 | 0.00 | 0.00 | 25 | 1004.1 |
| 20260503232028 | 19 | 288 | 6.4 | 22.5 | 0.00 | 0.00 | 0.00 | 24 | 1004.3 |
| 20260503231541 | 20 | 250 | 6.4 | 22.5 | 0.00 | 0.00 | 0.00 | 23 | 1004.4 |
| 20260503231025 | 20 | 273 | 6.4 | 22.5 | 0.00 | 0.00 | 0.00 | 23 | 1004.4 |
| 20260503230529 | 20 | 274 | 4.8 | 20.9 | 0.00 | 0.00 | 0.00 | 25 | 1004.5 |
| 20260503230047 | 20 | 262 | 11.3 | 19.3 | 0.00 | 0.00 | 0.00 | 24 | 1004.5 |
| 20260503225530 | 20 | 286 | 8.0 | 19.3 | 0.00 | 0.00 | 0.00 | 24 | 1004.5 |
| 20260503225029 | 20 | 10 | 3.2 | 16.1 | 0.00 | 0.00 | 0.00 | 25 | 1004.5 |
| 20260503224547 | 20 | 240 | 4.8 | 16.1 | 0.00 | 0.00 | 0.00 | 25 | 1004.5 |
| 20260503224027 | 20 | 17 | 6.4 | 16.1 | 0.00 | 0.00 | 0.00 | 25 | 1004.6 |
| 20260503223527 | 19 | 306 | 3.2 | 14.5 | 0.00 | 0.00 | 0.00 | 25 | 1004.6 |
| 20260503223043 | 19 | 249 | 6.4 | 14.5 | 0.00 | 0.00 | 0.00 | 24 | 1004.6 |
| 20260503222529 | 19 | 284 | 4.8 | 11.3 | 0.00 | 0.00 | 0.00 | 24 | 1004.6 |
| 20260503222030 | 19 | 313 | 6.4 | 20.9 | 0.00 | 0.00 | 0.00 | 24 | 1004.6 |
| 20260503221542 | 19 | 243 | 6.4 | 22.5 | 0.00 | 0.00 | 0.00 | 25 | 1004.7 |
| 20260503221029 | 19 | 233 | 8.0 | 22.5 | 0.00 | 0.00 | 0.00 | 26 | 1004.6 |
| 20260503220529 | 19 | 293 | 6.4 | 22.5 | 0.00 | 0.00 | 0.00 | 25 | 1004.5 |
| 20260503220042 | 19 | 311 | 8.0 | 25.7 | 0.00 | 0.00 | 0.00 | 25 | 1004.6 |
| 20260503215529 | 20 | 294 | 8.0 | 25.7 | 0.00 | 0.00 | 0.00 | 24 | 1004.7 |
| 20260503215028 | 20 | 311 | 6.4 | 19.3 | 0.00 | 0.00 | 0.00 | 24 | 1004.7 |
| 20260503214543 | 20 | 345 | 6.4 | 19.3 | 0.00 | 0.00 | 0.00 | 24 | 1004.7 |
| 20260503214030 | 20 | 304 | 4.8 | 19.3 | 0.00 | 0.00 | 0.00 | 25 | 1004.7 |
| 20260503213528 | 20 | 229 | 3.2 | 19.3 | 0.00 | 0.00 | 0.00 | 25 | 1004.8 |
| 20260503213044 | 20 | 262 | 4.8 | 12.9 | 0.00 | 0.00 | 0.00 | 24 | 1004.9 |
| 20260503212529 | 20 | 332 | 6.4 | 12.9 | 0.00 | 0.00 | 0.00 | 25 | 1004.9 |
| 20260503212029 | 20 | 288 | 4.8 | 12.9 | 0.00 | 0.00 | 0.00 | 24 | 1005.3 |
| 20260503211605 | 20 | 250 | 6.4 | 14.5 | 0.00 | 0.00 | 0.00 | 24 | 1005.3 |
| 20260503211029 | 20 | 338 | 6.4 | 16.1 | 0.00 | 0.00 | 0.00 | 24 | 1005.4 |
| 20260503210529 | 20 | 278 | 6.4 | 16.1 | 0.00 | 0.00 | 0.00 | 24 | 1005.5 |
| 20260503210043 | 20 | 351 | 6.4 | 17.7 | 0.00 | 0.00 | 0.00 | 24 | 1005.5 |
| 20260503205529 | 20 | 304 | 4.8 | 17.7 | 0.00 | 0.00 | 0.00 | 25 | 1005.6 |
| 20260503205029 | 20 | 314 | 4.8 | 12.9 | 0.00 | 0.00 | 0.00 | 25 | 1005.8 |
| 20260503204542 | 20 | 300 | 4.8 | 12.9 | 0.00 | 0.00 | 0.00 | 23 | 1005.7 |
| 20260503204031 | 19 | 76 | 3.2 | 14.5 | 0.00 | 0.00 | 0.00 | 25 | 1005.9 |
| 20260503203533 | 19 | 291 | 6.4 | 14.5 | 0.00 | 0.00 | 0.00 | 24 | 1005.9 |
| 20260503203047 | 19 | 307 | 6.4 | 17.7 | 0.00 | 0.00 | 0.00 | 25 | 1006.0 |
| 20260503202529 | 19 | 291 | 4.8 | 17.7 | 0.00 | 0.00 | 0.00 | 25 | 1006.0 |
| 20260503202029 | 19 | 266 | 9.7 | 17.7 | 0.00 | 0.00 | 0.00 | 24 | 1006.2 |
| 20260503201542 | 19 | 247 | 4.8 | 16.1 | 0.00 | 0.00 | 0.00 | 24 | 1006.2 |
| 20260503201028 | 20 | 300 | 3.2 | 16.1 | 0.00 | 0.00 | 0.00 | 25 | 1006.2 |
| 20260503200529 | 19 | 30 | 6.4 | 20.9 | 0.00 | 0.00 | 0.00 | 24 | 1006.2 |
| 20260503200056 | 19 | 8 | 4.8 | 20.9 | 0.00 | 0.00 | 0.00 | 23 | 1006.4 |
| 20260503195529 | 18 | 271 | 3.2 | 20.9 | 0.00 | 0.00 | 0.00 | 24 | 1006.5 |
| 20260503195029 | 19 | 63 | 9.7 | 20.9 | 0.00 | 0.00 | 0.00 | 23 | 1006.6 |
| 20260503194547 | 19 | 281 | 4.8 | 19.3 | 0.00 | 0.00 | 0.00 | 24 | 1006.6 |
| 20260503194028 | 19 | 212 | 1.6 | 19.3 | 0.00 | 0.00 | 0.00 | 25 | 1006.7 |
| 20260503193529 | 19 | 276 | 6.4 | 19.3 | 0.00 | 0.00 | 0.00 | 24 | 1006.7 |
| 20260503193055 | 19 | 306 | 3.2 | 17.7 | 0.00 | 0.00 | 0.00 | 25 | 1006.7 |
| 20260503192529 | 18 | 287 | 4.8 | 17.7 | 0.00 | 0.00 | 0.00 | 25 | 1006.8 |
| 20260503192028 | 18 | 293 | 6.4 | 16.1 | 0.00 | 0.00 | 0.00 | 25 | 1006.9 |
| 20260503191545 | 18 | 63 | 3.2 | 17.7 | 0.00 | 0.00 | 0.00 | 25 | 1007.0 |
| 20260503191029 | 18 | 264 | 3.2 | 17.7 | 0.00 | 0.00 | 0.00 | 25 | 1007.3 |
| 20260503190529 | 18 | 359 | 4.8 | 14.5 | 0.00 | 0.00 | 0.00 | 26 | 1007.1 |
| 20260503190047 | 18 | 48 | 4.8 | 12.9 | 0.00 | 0.00 | 0.00 | 25 | 1007.2 |
| 20260503185528 | 18 | 332 | 3.2 | 14.5 | 0.00 | 0.00 | 0.00 | 26 | 1007.4 |
| 20260503185029 | 17 | 298 | 3.2 | 14.5 | 0.00 | 0.00 | 0.00 | 27 | 1007.4 |
| 20260503184552 | 17 | 11 | 4.8 | 14.5 | 0.00 | 0.00 | 0.00 | 25 | 1007.4 |
| 20260503184030 | 17 | 358 | 6.4 | 17.7 | 0.00 | 0.00 | 0.00 | 28 | 1007.6 |
| 20260503183529 | 17 | 337 | 6.4 | 17.7 | 0.00 | 0.00 | 0.00 | 27 | 1007.5 |
| 20260503183043 | 17 | 342 | 4.8 | 12.9 | 0.00 | 0.00 | 0.00 | 26 | 1007.6 |
| 20260503182528 | 17 | 58 | 4.8 | 16.1 | 0.00 | 0.00 | 0.00 | 26 | 1007.7 |
| 20260503182032 | 17 | 342 | 3.2 | 16.1 | 0.00 | 0.00 | 0.00 | 28 | 1007.8 |
| 20260503181608 | 17 | 41 | 4.8 | 16.1 | 0.00 | 0.00 | 0.00 | 27 | 1007.9 |
| 20260503181028 | 17 | 352 | 4.8 | 12.9 | 0.00 | 0.00 | 0.00 | 27 | 1007.9 |
| 20260503180528 | 17 | 266 | 4.8 | 11.3 | 0.00 | 0.00 | 0.00 | 28 | 1008.1 |
| 20260503180106 | 16 | 277 | 3.2 | 19.3 | 0.00 | 0.00 | 0.00 | 28 | 1008.1 |
| 20260503175529 | 16 | 274 | 4.8 | 19.3 | 0.00 | 0.00 | 0.00 | 26 | 1008.2 |
| 20260503175029 | 16 | 319 | 8.0 | 19.3 | 0.00 | 0.00 | 0.00 | 28 | 1008.3 |
| 20260503174551 | 16 | 308 | 3.2 | 12.9 | 0.00 | 0.00 | 0.00 | 28 | 1008.3 |
| 20260503174030 | 16 | 333 | 4.8 | 16.1 | 0.00 | 0.00 | 0.00 | 28 | 1008.5 |
| 20260503173529 | 16 | 272 | 3.2 | 16.1 | 0.00 | 0.00 | 0.00 | 29 | 1008.5 |
| 20260503173053 | 16 | 297 | 4.8 | 16.1 | 0.00 | 0.00 | 0.00 | 27 | 1008.5 |
| 20260503172528 | 16 | 320 | 4.8 | 16.1 | 0.00 | 0.00 | 0.00 | 29 | 1008.5 |
| 20260503172031 | 16 | 28 | 6.4 | 16.1 | 0.00 | 0.00 | 0.00 | 26 | 1008.7 |
| 20260503171540 | 16 | 345 | 6.4 | 16.1 | 0.00 | 0.00 | 0.00 | 27 | 1008.7 |
| 20260503171031 | 16 | 17 | 3.2 | 17.7 | 0.00 | 0.00 | 0.00 | 26 | 1008.6 |
| 20260503170532 | 16 | 335 | 6.4 | 17.7 | 0.00 | 0.00 | 0.00 | 28 | 1008.6 |
| 20260503150531 | 13 | 314 | 4.8 | 12.9 | 0.00 | 0.00 | 0.00 | 37 | 1008.7 |
| 20260503131027 | 11 | 326 | 1.6 | 11.3 | 0.00 | 0.00 | 0.00 | 61 | 1008.2 |
| 20260503130529 | 10 | 335 | 1.6 | 12.9 | 0.00 | 0.00 | 0.00 | 62 | 1008.1 |
| 20260503110528 | 6 | 293 | 0.0 | 1.6 | 0.00 | 0.00 | 0.00 | 78 | 1006.8 |
| 20260503081544 | 7 | 0 | 0.0 | 0.0 | 0.00 | 0.00 | 0.00 | 66 | 1005.7 |
| 20260503081028 | 7 | 0 | 0.0 | 0.0 | 0.00 | 0.00 | 0.00 | 66 | 1005.6 |
| 20260503080528 | 7 | 0 | 0.0 | 0.0 | 0.00 | 0.00 | 0.00 | 65 | 1005.7 |
| 20260503072528 | 8 | 0 | 0.0 | 1.6 | 0.00 | 0.00 | 0.00 | 60 | 1005.7 |
| 20260503072031 | 9 | 0 | 0.0 | 1.6 | 0.00 | 0.00 | 0.00 | 59 | 1005.8 |
| 20260503071552 | 9 | 132 | 0.0 | 1.6 | 0.00 | 0.00 | 0.00 | 59 | 1005.8 |
| 20260503071028 | 9 | 0 | 0.0 | 0.0 | 0.00 | 0.00 | 0.00 | 58 | 1005.9 |
| 20260503070528 | 10 | 0 | 0.0 | 0.0 | 0.00 | 0.00 | 0.00 | 57 | 1005.9 |